User: anonymous   Login
Location: Unspecified
(0.0000°N, 0.0000°E)
Time: 20:08:39
(UTC+00:00)
Language:

OPS 7613 P/L 1 - Orbit

View from above orbital plane
View from above orbital plane
View from above satellite
View from above satellite

Ground track
Ground track

The orbit data is extracted from the following two-line orbital elements,

1  4256U 69082B   18114.74121383 +.00000029 +00000-0 +57625-4 0  9996
2  4256 070.0106 230.3877 0019481 350.9744 009.1009 13.98294172474457
Epoch (UTC): 24 April 2018 17:47:20
Eccentricity: 0.0019481
inclination: 70.0106°
perigee height: 885 km
apogee height: 914 km
right ascension of ascending node: 230.3877°
argument of perigee: 350.9744°
revolutions per day: 13.98294172
mean anomaly at epoch: 9.1009°
orbit number at epoch: 47445

The dashed part of the orbit path shows where the satellite is in the earth's shadow,  

DLR